Regional Weather Roundup
Issued by NWS

Home | Current Version | Previous Version | Graphics & Text | Print | Product List | Glossary On
Versions: 1 2 3 4 5 6 7 8 9 10 11 12 13 14 15 16 17 18 19 20 21 22 23 24 25 26 27 28 29 30 31 32 33 34 35 36 37 38 39 40 41 42 43 44 45 46 47 48 49 50
000
ASUS45 KBOU 281910
RWRCO

WEATHER ROUNDUP FOR COLORADO
NATIONAL WEATHER SERVICE DENVER/BOULDER CO
100 PM MDT WED SEP 28 2016

NOTE: "FAIR" INDICATES FEW OR NO CLOUDS BELOW 12000 FEET WITH NO
SIGNIFICANT WEATHER AND/OR OBSTRUCTIONS TO VISIBILITY.

COZ001>005-013-030-031-282000-
...NORTHWEST COLORADO...

CITY           SKY/WX    TMP DP  RH WIND       PRES   REMARKS
CRAIG          FAIR      74  34  23 NW8       30.31F
HAYDEN         FAIR      73  32  21 W6        30.31F
MEEKER         FAIR      73  40  30 CALM      30.31F
MOUNT WERNER   NOT AVBL
STEAMBOAT SPGS FAIR      76  30  18 CALM      30.32F
WALDEN           N/A     70  23  17 S3        30.44F
$$

COZ006>008-011-282000-
...WEST CENTRAL VALLEYS...

CITY           SKY/WX    TMP DP  RH WIND       PRES   REMARKS
GRAND JUNCTION FAIR      77  34  21 S6        30.22F
MONTROSE       FAIR      73  38  27 N8        30.28F
EAGLE          MOSUNNY   72  30  21 CALM      30.35F
RIFLE          FAIR      73  37  27 CALM      30.26F
DELTA          FAIR      77  38  24 CALM      30.25F
NUCLA          FAIR      73  34  23 N5        30.32F
$$

COZ017>023-064>068-282000-
...SOUTHWEST COLORADO...

CITY           SKY/WX    TMP DP  RH WIND       PRES   REMARKS
DURANGO        FAIR      73  27  18 E7        30.36F
CORTEZ         FAIR      80  35  19 SE10      30.29F
PAGOSA SPRINGS FAIR      73  22  15 SW3       30.42F
TELLURIDE      FAIR      67  25  20 SW9G17    30.49S
WOLF CREEK PAS CLOUDY    52  27  37 SW10G20   30.71S
$$

COZ009-010-012-014-032>034-037-058>063-282000-
...CENTRAL COLORADO...

CITY           SKY/WX    TMP DP  RH WIND       PRES   REMARKS
ASPEN          FAIR      74  26  16 CALM      30.37F
BUENA VISTA    FAIR      71  24  16 SE3       30.46F
COPPER MTN     FAIR      61  19  20 SE13G20   30.69F
BERTHOUD PASS  FAIR      46  32  57 E26G37    30.74S
COTTONWOOD PAS FAIR      68  18  14 E13G18    30.58F
GUNNISON       FAIR      72  27  18 NE9       30.39F
KREMMLING      FAIR      72  21  15 N3        30.40F
LEADVILLE      FAIR      63  21  20 S17       30.54F
MONARCH PASS   FAIR      48  27  43 NE15      30.81S
SALIDA         FAIR      75  26  16 E13G24    30.50F
SUNLIGHT       PTSUNNY   59  30  33 SW3       30.64S
WILKERSON PASS FAIR      55  21  26 SW3       30.71S
$$

COZ069>075-282000-
...SAN LUIS VALLEY/SANGRE DE CRISTO MOUNTAINS...

CITY           SKY/WX    TMP DP  RH WIND       PRES   REMARKS
ALAMOSA        FAIR      72  27  18 E6        30.42F
LA VETA PASS   FAIR      63  30  29 MISG      30.61S
SAGUACHE       NOT AVBL
$$

COZ035-036-038>040-282000-
...NORTHERN COLORADO FRONT RANGE...

CITY           SKY/WX    TMP DP  RH WIND       PRES   REMARKS
DENVER INTL AP FAIR      78  28  16 NE8       30.33F
DMNS CITY PARK   N/A     77  29  17 NE5       30.33F
AURORA         MOSUNNY   76  29  17 VRB6      30.35F
FRONT RANGE AP MOSUNNY   79  27  14 SE7       30.35F
ERIE MUNI ARPT FAIR      78  24  13 E3        30.32F
BOULDER MUN AP FAIR      77  30  18 E5        30.33F
CENTENNIAL     FAIR      75  30  19 CALM      30.36F
BROOMFIELD     MOSUNNY   75  28  17 E6        30.36F
FORT COLLINS   FAIR      79  36  21 E6        30.31F
LONGMONT       FAIR      79  32  18 NE5       30.34F
$$

COZ041-046-047-076>085-087-088-282000-
...PIKES PEAK/PALMER DIVIDE AND SOUTHERN FOOTHILLS...

CITY           SKY/WX    TMP DP  RH WIND       PRES   REMARKS
COLO. SPRINGS  FAIR      79  24  13 S13G29    30.38S
A. F. ACADEMY  FAIR      77  23  13 SE6       30.38F
SCHRIEVER AFB  NOT AVBL
ELLICOTT       NOT AVBL
FALCON         FAIR      76  22  13 S8        30.43S
FORT CARSON    FAIR      78  26  14 E10       30.35S
LIMON          FAIR      78  29  16 CALM      30.33F
MONUMENT HILL  FAIR      72  28  20 S6        30.43F
TRINIDAD       FAIR      79  27  14 VRB6      30.34F
$$

COZ042>045-048>051-090-091-282000-
...NORTHEAST COLORADO...

CITY           SKY/WX    TMP DP  RH WIND       PRES   REMARKS
GREELEY ARPT   FAIR      79  39  24 E8        30.32F
AKRON          FAIR      77  37  23 MISG      30.31F
BURLINGTON     FAIR      81  35  19 VRB6      30.28S
WRAY           FAIR      82  36  18 N8G21     30.26
STERLING       FAIR      79  41  25 E6        30.28S
HOLYOKE        FAIR      82  37  20 N8        30.27S
FORT MORGAN    FAIR      80  34  19 E7        30.31F
$$

COZ086-089-092>099-282000-
...SOUTHEAST COLORADO...

CITY           SKY/WX    TMP DP  RH WIND       PRES   REMARKS
PUEBLO         FAIR      81  34  18 SE10      30.28F
LA JUNTA       FAIR      81  36  19 E6        30.26F
LAMAR          FAIR      84  38  19 NE10      30.22F
SPRINGFIELD    NOT AVBL
$$



USA.gov is the U.S. government's official web portal to all federal, state and local government web resources and services.